If you wish to contribute or participate in the discussions about articles you are invited to join SKYbrary as a registered user

 Actions

Horn Island Airport

From SKYbrary Wiki

YHID
Airport
ICAO: YHID – IATA: HID
Summary
Name Horn Island Airport
Region Asia and Pacific
Territory "YH" is not in the list (AG, AN, AY, BG, BI, BK, C, CT, DA, DB, ...) of allowed values for the "ICAO Territory" property.
Location , Queensland
Serving Horn Island
Elevation 13.106 m
43 ft
43 ft13.106 m
Type medium airport
Coordinates 10° 35' 11.04" S, 142° 17' 24.00" E
Runways
Designator Length Width Surface ROPS
8/26 1389 m4,557.087 ft
30 m98.425 ft
ASP /
14/32 1235 m4,051.837 ft
23 m75.459 ft
ASP /


METAR
Observation YHID 130500Z AUTO 21006KT 150V250 1300 +SHRA SCT017 BKN027 BKN050 25/23 Q1009
Station HORN ISLAND
Date/Time 13 December 2019 05:00:00
Wind direction 210°
Wind speed 06 kts
Lowest cloud amount scattered clouds
Temperature 25°C
Dew point 23°C
Humidity 88%
QNH 1009 hPa
Weather condition n/a